| time (UTC) | temp C | wind direction | speed KPH | gust KPH | rain 1hr cm | rain 24hr cm | rain mn cm | humidity % | barometer mb |
| 20260510125131 | 22 | 72 | 0.0 | 17.7 | 0.00 | 0.48 | 0.00 | 89 | 1017.1 |
| 20260510124631 | 22 | 66 | 0.0 | 22.5 | 0.00 | 0.48 | 0.00 | 89 | 1017.2 |
| 20260510124402 | 22 | 74 | 0.0 | 22.5 | 0.00 | 0.48 | 0.00 | 89 | 1016.9 |
| 20260510123631 | 22 | 47 | 8.0 | 22.5 | 0.00 | 0.48 | 0.00 | 89 | 1017.3 |
| 20260510123133 | 23 | 88 | 11.3 | 25.7 | 0.00 | 0.48 | 0.00 | 89 | 1017.2 |
| 20260510122633 | 22 | 45 | 9.7 | 25.7 | 0.00 | 0.48 | 0.00 | 88 | 1017.1 |
| 20260510122403 | 22 | 111 | 12.9 | 30.6 | 0.00 | 0.48 | 0.00 | 88 | 1017.2 |
| 20260510121631 | 23 | 98 | 14.5 | 30.6 | 0.00 | 0.48 | 0.00 | 89 | 1017.3 |
| 20260510121132 | 23 | 96 | 14.5 | 30.6 | 0.00 | 0.48 | 0.00 | 88 | 1017.2 |
| 20260510120631 | 22 | 94 | 14.5 | 30.6 | 0.00 | 0.48 | 0.00 | 86 | 1017.3 |
| 20260510120132 | 22 | 49 | 8.0 | 30.6 | 0.00 | 0.48 | 0.00 | 86 | 1017.4 |
| 20260510115632 | 23 | 91 | 19.3 | 30.6 | 0.00 | 0.48 | 0.00 | 87 | 1017.6 |
| 20260510115131 | 23 | 96 | 17.7 | 30.6 | 0.00 | 0.48 | 0.00 | 86 | 1017.5 |
| 20260510114632 | 23 | 73 | 12.9 | 30.6 | 0.00 | 0.48 | 0.00 | 86 | 1017.5 |
| 20260510114132 | 23 | 110 | 0.0 | 30.6 | 0.00 | 0.48 | 0.00 | 85 | 1017.3 |
| 20260510113635 | 23 | 105 | 9.7 | 33.8 | 0.00 | 0.48 | 0.00 | 86 | 1017.3 |
| 20260510113132 | 23 | 100 | 12.9 | 33.8 | 0.00 | 0.48 | 0.00 | 86 | 1017.7 |
| 20260510112632 | 23 | 84 | 14.5 | 32.2 | 0.00 | 0.48 | 0.00 | 86 | 1017.6 |
| 20260510112402 | 23 | 121 | 17.7 | 32.2 | 0.00 | 0.48 | 0.00 | 86 | 1017.6 |
| 20260510111632 | 23 | 28 | 11.3 | 37.0 | 0.00 | 0.48 | 0.00 | 85 | 1017.5 |
| 20260510111132 | 23 | 78 | 22.5 | 37.0 | 0.00 | 0.48 | 0.00 | 86 | 1017.6 |
| 20260510110632 | 23 | 75 | 20.9 | 32.2 | 0.00 | 0.48 | 0.00 | 86 | 1017.6 |
| 20260510110131 | 23 | 56 | 19.3 | 32.2 | 0.00 | 0.48 | 0.00 | 87 | 1017.7 |
| 20260510105632 | 23 | 87 | 22.5 | 27.4 | 0.00 | 0.48 | 0.00 | 88 | 1017.5 |
| 20260510105132 | 23 | 79 | 14.5 | 22.5 | 0.00 | 0.48 | 0.00 | 89 | 1017.8 |
| 20260510104632 | 23 | 90 | 11.3 | 25.7 | 0.00 | 0.48 | 0.00 | 91 | 1017.8 |
| 20260510104131 | 23 | 89 | 12.9 | 25.7 | 0.00 | 0.48 | 0.00 | 90 | 1017.8 |
| 20260510103631 | 23 | 92 | 16.1 | 25.7 | 0.00 | 0.48 | 0.00 | 90 | 1018.1 |
| 20260510103132 | 23 | 58 | 20.9 | 24.1 | 0.00 | 0.48 | 0.00 | 89 | 1018.1 |
| 20260510102633 | 23 | 60 | 9.7 | 27.4 | 0.00 | 0.48 | 0.00 | 88 | 1018.0 |
| 20260510102131 | 23 | 77 | 17.7 | 30.6 | 0.00 | 0.48 | 0.00 | 87 | 1018.1 |
| 20260510101632 | 23 | 86 | 20.9 | 30.6 | 0.00 | 0.48 | 0.00 | 87 | 1017.9 |
| 20260510101402 | 23 | 71 | 17.7 | 30.6 | 0.00 | 0.48 | 0.00 | 87 | 1017.8 |
| 20260510100632 | 23 | 82 | 9.7 | 25.7 | 0.00 | 0.48 | 0.00 | 87 | 1017.9 |
| 20260510100132 | 23 | 62 | 6.4 | 32.2 | 0.00 | 0.48 | 0.00 | 87 | 1017.9 |
| 20260510095631 | 23 | 75 | 20.9 | 33.8 | 0.00 | 0.48 | 0.48 | 87 | 1018.0 |
| 20260510095402 | 23 | 65 | 16.1 | 33.8 | 0.00 | 0.48 | 0.48 | 87 | 1018.0 |
| 20260510094902 | 23 | 56 | 16.1 | 33.8 | 0.00 | 0.48 | 0.48 | 86 | 1018.1 |
| 20260510094131 | 23 | 25 | 17.7 | 33.8 | 0.00 | 0.48 | 0.48 | 86 | 1018.5 |
| 20260510093632 | 23 | 81 | 20.9 | 33.8 | 0.00 | 0.48 | 0.48 | 87 | 1018.4 |
| 20260510093132 | 23 | 86 | 16.1 | 33.8 | 0.00 | 0.48 | 0.48 | 87 | 1018.4 |
| 20260510092632 | 23 | 106 | 22.5 | 33.8 | 0.00 | 0.48 | 0.48 | 87 | 1018.6 |
| 20260510092403 | 23 | 75 | 14.5 | 33.8 | 0.00 | 0.48 | 0.48 | 86 | 1018.4 |
| 20260510091632 | 23 | 80 | 12.9 | 33.8 | 0.00 | 0.48 | 0.48 | 87 | 1018.4 |
| 20260510091132 | 23 | 56 | 17.7 | 32.2 | 0.00 | 0.48 | 0.48 | 87 | 1018.5 |
| 20260510090904 | 23 | 48 | 14.5 | 33.8 | 0.00 | 0.48 | 0.48 | 87 | 1018.6 |
| 20260510090403 | 23 | 89 | 12.9 | 33.8 | 0.00 | 0.48 | 0.48 | 88 | 1018.8 |
| 20260510085632 | 23 | 44 | 17.7 | 33.8 | 0.00 | 0.48 | 0.48 | 88 | 1018.6 |
| 20260510085132 | 23 | 72 | 14.5 | 27.4 | 0.00 | 0.48 | 0.48 | 89 | 1018.4 |
| 20260510084632 | 23 | 43 | 14.5 | 30.6 | 0.00 | 0.48 | 0.48 | 89 | 1018.6 |
| 20260510084402 | 23 | 39 | 16.1 | 30.6 | 0.00 | 0.48 | 0.48 | 89 | 1018.5 |
| 20260510084237 | 23 | 69 | 9.7 | 30.6 | 0.00 | 0.48 | 0.48 | 90 | 1018.6 |
| 20260510083132 | 23 | 87 | 12.9 | 30.6 | 0.00 | 0.48 | 0.48 | 90 | 1018.9 |
| 20260510082632 | 23 | 70 | 9.7 | 27.4 | 0.00 | 0.48 | 0.48 | 89 | 1018.5 |
| 20260510082133 | 23 | 58 | 12.9 | 30.6 | 0.00 | 0.48 | 0.48 | 90 | 1018.5 |
| 20260510081902 | 22 | 49 | 12.9 | 33.8 | 0.00 | 0.48 | 0.48 | 89 | 1018.5 |
| 20260510081132 | 22 | 52 | 14.5 | 33.8 | 0.00 | 0.48 | 0.48 | 90 | 1018.6 |
| 20260510080902 | 22 | 122 | 11.3 | 30.6 | 0.00 | 0.48 | 0.48 | 91 | 1018.6 |
| 20260510080131 | 22 | 79 | 16.1 | 30.6 | 0.00 | 0.48 | 0.48 | 90 | 1018.6 |
| 20260510075632 | 22 | 128 | 20.9 | 30.6 | 0.00 | 0.48 | 0.48 | 90 | 1018.3 |
| 20260510075131 | 22 | 65 | 22.5 | 33.8 | 0.00 | 0.48 | 0.48 | 89 | 1018.2 |
| 20260510074631 | 22 | 71 | 17.7 | 33.8 | 0.00 | 0.48 | 0.48 | 89 | 1018.2 |
| 20260510074131 | 22 | 59 | 8.0 | 38.6 | 0.00 | 0.48 | 0.48 | 89 | 1018.3 |
| 20260510073631 | 23 | 94 | 12.9 | 38.6 | 0.00 | 0.48 | 0.48 | 89 | 1018.4 |
| 20260510073130 | 23 | 121 | 22.5 | 32.2 | 0.00 | 0.48 | 0.48 | 89 | 1018.2 |
| 20260510072630 | 22 | 111 | 9.7 | 30.6 | 0.00 | 0.48 | 0.48 | 88 | 1018.2 |
| 20260510072129 | 22 | 79 | 19.3 | 37.0 | 0.00 | 0.48 | 0.48 | 88 | 1018.1 |
| 20260510071630 | 22 | 94 | 12.9 | 37.0 | 0.00 | 0.48 | 0.48 | 89 | 1018.1 |
| 20260510071401 | 22 | 143 | 19.3 | 33.8 | 0.00 | 0.48 | 0.48 | 90 | 1018.0 |
| 20260510070629 | 22 | 83 | 14.5 | 32.2 | 0.00 | 0.48 | 0.48 | 90 | 1017.9 |
| 20260510070133 | 22 | 84 | 9.7 | 25.7 | 0.00 | 0.48 | 0.48 | 91 | 1017.7 |
| 20260510065630 | 22 | 111 | 9.7 | 32.2 | 0.30 | 0.48 | 0.48 | 91 | 1017.7 |
| 20260510065130 | 22 | 120 | 12.9 | 32.2 | 0.46 | 0.48 | 0.48 | 91 | 1017.7 |
| 20260510064901 | 22 | 117 | 20.9 | 30.6 | 0.46 | 0.48 | 0.48 | 91 | 1017.6 |
| 20260510064118 | 22 | 113 | 0.0 | 33.8 | 0.46 | 0.48 | 0.48 | 92 | 1017.7 |
| 20260510063849 | 22 | 82 | 9.7 | 33.8 | 0.46 | 0.48 | 0.48 | 92 | 1017.6 |
| 20260510063117 | 22 | 40 | 9.7 | 38.6 | 0.46 | 0.48 | 0.48 | 92 | 1017.3 |
| 20260510062848 | 22 | 72 | 17.7 | 38.6 | 0.46 | 0.48 | 0.48 | 92 | 1017.3 |
| 20260510062116 | 22 | 84 | 12.9 | 30.6 | 0.46 | 0.48 | 0.48 | 92 | 1017.1 |
| 20260510061617 | 22 | 102 | 20.9 | 30.6 | 0.46 | 0.48 | 0.48 | 92 | 1017.2 |
| 20260510061117 | 22 | 88 | 19.3 | 30.6 | 0.46 | 0.48 | 0.48 | 92 | 1017.0 |
| 20260510060618 | 22 | 99 | 14.5 | 27.4 | 0.46 | 0.48 | 0.48 | 92 | 1016.9 |
| 20260510060116 | 22 | 133 | 9.7 | 27.4 | 0.46 | 0.48 | 0.48 | 92 | 1016.9 |
| 20260510055617 | 22 | 143 | 16.1 | 20.9 | 0.15 | 0.18 | 0.23 | 91 | 1017.1 |
| 20260510055117 | 22 | 115 | 0.0 | 14.5 | 0.00 | 0.03 | 0.03 | 91 | 1017.2 |
| 20260510054616 | 22 | 139 | 0.0 | 14.5 | 0.00 | 0.03 | 0.03 | 92 | 1016.8 |
| 20260510054116 | 22 | 139 | 0.0 | 14.5 | 0.00 | 0.03 | 0.03 | 92 | 1016.8 |
| 20260510053616 | 22 | 138 | 0.0 | 14.5 | 0.00 | 0.03 | 0.03 | 92 | 1016.9 |
| 20260510053117 | 22 | 105 | 0.0 | 14.5 | 0.00 | 0.03 | 0.03 | 92 | 1016.6 |
| 20260510052616 | 22 | 154 | 0.0 | 0.0 | 0.00 | 0.03 | 0.03 | 92 | 1016.6 |
| 20260510052116 | 22 | 173 | 0.0 | 0.0 | 0.00 | 0.03 | 0.03 | 92 | 1016.6 |
| 20260510051616 | 22 | 155 | 0.0 | 0.0 | 0.00 | 0.03 | 0.03 | 92 | 1016.3 |
| 20260510051118 | 22 | 157 | 0.0 | 0.0 | 0.00 | 0.03 | 0.03 | 92 | 1016.6 |
| 20260510050616 | 22 | 157 | 0.0 | 0.0 | 0.00 | 0.03 | 0.03 | 91 | 1016.3 |
| 20260510050116 | 22 | 157 | 0.0 | 0.0 | 0.00 | 0.03 | 0.03 | 91 | 1016.2 |
| 20260510045615 | 22 | 266 | 0.0 | 0.0 | 0.00 | 0.03 | 0.03 | 91 | 1016.3 |
| 20260510045104 | 22 | 266 | 0.0 | 0.0 | 0.00 | 0.03 | 0.03 | 90 | 1016.4 |
| 20260510044604 | 22 | 268 | 0.0 | 0.0 | 0.00 | 0.03 | 0.03 | 90 | 1016.0 |
| 20260510044104 | 22 | 268 | 0.0 | 0.0 | 0.03 | 0.03 | 0.03 | 90 | 1016.2 |
| 20260510043539 | 22 | 268 | 0.0 | 0.0 | 0.03 | 0.03 | 0.03 | 90 | 1016.0 |
| 20260510043311 | 22 | 331 | 0.0 | 0.0 | 0.03 | 0.03 | 0.03 | 90 | 1015.9 |
| 20260510042540 | 22 | 338 | 0.0 | 0.0 | 0.03 | 0.03 | 0.03 | 90 | 1015.9 |
| 20260510042027 | 22 | 289 | 0.0 | 0.0 | 0.03 | 0.03 | 0.03 | 90 | 1016.1 |
| 20260510041527 | 22 | 353 | 0.0 | 0.0 | 0.03 | 0.03 | 0.03 | 90 | 1016.0 |
| 20260510041257 | 22 | 310 | 0.0 | 0.0 | 0.03 | 0.03 | 0.03 | 90 | 1015.9 |
| 20260510040528 | 22 | 304 | 0.0 | 16.1 | 0.03 | 0.03 | 0.03 | 91 | 1016.0 |
| 20260510040026 | 22 | 327 | 0.0 | 17.7 | 0.03 | 0.03 | 0.03 | 91 | 1015.7 |
| 20260510035526 | 22 | 28 | 0.0 | 17.7 | 0.03 | 0.03 | 0.03 | 90 | 1015.9 |
| 20260510035026 | 22 | 304 | 0.0 | 14.5 | 0.03 | 0.03 | 0.03 | 90 | 1015.9 |
| 20260510034527 | 22 | 347 | 0.0 | 24.1 | 0.03 | 0.03 | 0.03 | 90 | 1015.9 |
| 20260510034027 | 22 | 80 | 1.6 | 24.1 | 0.00 | 0.00 | 0.00 | 90 | 1016.0 |
| 20260510033526 | 22 | 52 | 17.7 | 27.4 | 0.00 | 0.00 | 0.00 | 89 | 1015.7 |
| 20260510033026 | 23 | 0 | 9.7 | 27.4 | 0.00 | 0.00 | 0.00 | 89 | 1015.7 |
| 20260510032520 | 23 | 329 | 20.9 | 27.4 | 0.00 | 0.00 | 0.00 | 88 | 1015.9 |
| 20260510032014 | 23 | 49 | 14.5 | 27.4 | 0.00 | 0.00 | 0.00 | 87 | 1015.9 |
| 20260510031520 | 23 | 28 | 12.9 | 25.7 | 0.00 | 0.00 | 0.00 | 86 | 1016.0 |
| 20260510031514 | 23 | 22 | 16.1 | 25.7 | 0.00 | 0.00 | 0.00 | 87 | 1015.9 |
| 20260510030513 | 23 | 76 | 8.0 | 32.2 | 0.00 | 0.00 | 0.00 | 86 | 1015.8 |
| 20260510030244 | 23 | 17 | 19.3 | 32.2 | 0.00 | 0.00 | 0.00 | 85 | 1015.8 |
| 20260510025745 | 23 | 44 | 16.1 | 32.2 | 0.00 | 0.00 | 0.00 | 83 | 1015.9 |
| 20260510025007 | 23 | 32 | 14.5 | 32.2 | 0.00 | 0.00 | 0.00 | 83 | 1015.8 |
| 20260510024501 | 23 | 19 | 12.9 | 30.6 | 0.00 | 0.00 | 0.00 | 83 | 1015.9 |
| 20260510024003 | 23 | 110 | 16.1 | 38.6 | 0.00 | 0.00 | 0.00 | 83 | 1016.0 |
| 20260510023502 | 23 | 46 | 24.1 | 38.6 | 0.00 | 0.00 | 0.00 | 83 | 1015.7 |
| 20260510023232 | 23 | 75 | 16.1 | 33.8 | 0.00 | 0.00 | 0.00 | 83 | 1015.8 |
| 20260510022502 | 23 | 55 | 12.9 | 37.0 | 0.00 | 0.00 | 0.00 | 82 | 1016.0 |
| 20260510022002 | 24 | 79 | 22.5 | 37.0 | 0.00 | 0.00 | 0.00 | 81 | 1016.0 |
| 20260510021508 | 24 | 33 | 17.7 | 46.7 | 0.00 | 0.00 | 0.00 | 80 | 1016.3 |
| 20260510021501 | 24 | 25 | 14.5 | 46.7 | 0.00 | 0.00 | 0.00 | 81 | 1016.0 |
| 20260510020459 | 24 | 46 | 24.1 | 32.2 | 0.00 | 0.00 | 0.00 | 82 | 1016.0 |
| 20260510020001 | 24 | 46 | 12.9 | 32.2 | 0.00 | 0.00 | 0.00 | 82 | 1016.1 |
| 20260510015452 | 24 | 29 | 17.7 | 30.6 | 0.00 | 0.00 | 0.00 | 81 | 1016.2 |
| 20260510014946 | 24 | 71 | 19.3 | 27.4 | 0.00 | 0.00 | 0.00 | 81 | 1015.9 |
| 20260510014446 | 23 | 40 | 19.3 | 30.6 | 0.00 | 0.00 | 0.00 | 80 | 1016.1 |
| 20260510013934 | 24 | 76 | 16.1 | 30.6 | 0.00 | 0.00 | 0.00 | 82 | 1016.4 |
| 20260510013439 | 24 | 60 | 17.7 | 32.2 | 0.00 | 0.00 | 0.00 | 82 | 1016.2 |
| 20260510013434 | 24 | 55 | 9.7 | 32.2 | 0.00 | 0.00 | 0.00 | 82 | 1016.2 |
| 20260510012434 | 24 | 83 | 14.5 | 38.6 | 0.00 | 0.00 | 0.00 | 82 | 1016.2 |
| 20260510011936 | 24 | 61 | 12.9 | 38.6 | 0.00 | 0.00 | 0.00 | 83 | 1016.1 |
| 20260510011705 | 24 | 73 | 22.5 | 32.2 | 0.00 | 0.00 | 0.00 | 82 | 1015.8 |
| 20260510010934 | 24 | 75 | 11.3 | 40.2 | 0.00 | 0.00 | 0.00 | 82 | 1016.0 |
| 20260510010434 | 24 | 62 | 12.9 | 40.2 | 0.00 | 0.00 | 0.00 | 83 | 1016.4 |
| 20260510005934 | 25 | 104 | 8.0 | 33.8 | 0.00 | 0.00 | 0.00 | 82 | 1016.3 |
| 20260510005432 | 25 | 63 | 19.3 | 33.8 | 0.00 | 0.00 | 0.00 | 81 | 1016.6 |
| 20260510004932 | 25 | 68 | 17.7 | 30.6 | 0.00 | 0.00 | 0.00 | 81 | 1016.5 |
| 20260510004431 | 25 | 40 | 16.1 | 30.6 | 0.00 | 0.00 | 0.00 | 82 | 1016.4 |
| 20260510004209 | 25 | 34 | 12.9 | 25.7 | 0.00 | 0.00 | 0.00 | 81 | 1016.4 |
| 20260510003932 | 25 | 76 | 16.1 | 30.6 | 0.00 | 0.00 | 0.00 | 82 | 1016.2 |
| 20260510002932 | 24 | 47 | 16.1 | 37.0 | 0.00 | 0.00 | 0.00 | 82 | 1016.2 |
| 20260510002424 | 24 | 34 | 16.1 | 37.0 | 0.00 | 0.00 | 0.00 | 84 | 1016.4 |
| 20260510001920 | 24 | 61 | 20.9 | 37.0 | 0.00 | 0.00 | 0.00 | 82 | 1016.6 |
| 20260510001418 | 25 | 87 | 14.5 | 32.2 | 0.00 | 0.00 | 0.00 | 83 | 1016.6 |
| 20260510000918 | 25 | 80 | 17.7 | 32.2 | 0.00 | 0.00 | 0.00 | 83 | 1016.5 |
| 20260510000419 | 24 | 67 | 12.9 | 40.2 | 0.00 | 0.00 | 0.00 | 83 | 1016.6 |
| 20260509235918 | 24 | 92 | 24.1 | 40.2 | 0.00 | 0.00 | 0.00 | 83 | 1016.5 |
| 20260509235419 | 24 | 11 | 12.9 | 33.8 | 0.00 | 0.00 | 0.00 | 83 | 1016.4 |
| 20260509234918 | 24 | 111 | 20.9 | 33.8 | 0.00 | 0.00 | 0.00 | 82 | 1016.4 |
| 20260509234419 | 25 | 30 | 14.5 | 30.6 | 0.00 | 0.00 | 0.00 | 82 | 1016.6 |
| 20260509233924 | 25 | 30 | 14.5 | 33.8 | 0.00 | 0.00 | 0.00 | 80 | 1016.7 |
| 20260509233919 | 25 | 70 | 8.0 | 30.6 | 0.00 | 0.00 | 0.00 | 80 | 1017.0 |
| 20260509232919 | 25 | 85 | 6.4 | 33.8 | 0.00 | 0.00 | 0.00 | 80 | 1016.9 |
| 20260509232419 | 25 | 75 | 17.7 | 32.2 | 0.00 | 0.00 | 0.00 | 81 | 1017.0 |
| 20260509231918 | 25 | 38 | 17.7 | 40.2 | 0.00 | 0.00 | 0.00 | 81 | 1017.0 |
| 20260509231649 | 25 | 61 | 14.5 | 40.2 | 0.00 | 0.00 | 0.00 | 81 | 1016.9 |
| 20260509231151 | 25 | 65 | 19.3 | 27.4 | 0.00 | 0.00 | 0.00 | 82 | 1016.9 |
| 20260509230419 | 25 | 48 | 17.7 | 37.0 | 0.00 | 0.00 | 0.00 | 81 | 1017.3 |
| 20260509225919 | 25 | 106 | 6.4 | 37.0 | 0.00 | 0.00 | 0.00 | 81 | 1017.1 |
| 20260509225419 | 25 | 102 | 6.4 | 30.6 | 0.00 | 0.00 | 0.00 | 81 | 1017.2 |
| 20260509224918 | 25 | 67 | 17.7 | 30.6 | 0.00 | 0.00 | 0.00 | 81 | 1017.1 |
| 20260509224419 | 25 | 94 | 4.8 | 30.6 | 0.00 | 0.00 | 0.00 | 81 | 1017.2 |
| 20260509223919 | 25 | 87 | 9.7 | 30.6 | 0.00 | 0.00 | 0.00 | 79 | 1017.2 |
| 20260509223419 | 26 | 92 | 16.1 | 33.8 | 0.00 | 0.00 | 0.00 | 79 | 1017.1 |
| 20260509222919 | 26 | 102 | 12.9 | 33.8 | 0.00 | 0.00 | 0.00 | 79 | 1017.5 |
| 20260509222419 | 26 | 42 | 16.1 | 30.6 | 0.00 | 0.00 | 0.00 | 80 | 1017.6 |
| 20260509221906 | 26 | 68 | 12.9 | 25.7 | 0.00 | 0.00 | 0.00 | 80 | 1017.3 |
| 20260509221638 | 26 | 59 | 17.7 | 25.7 | 0.00 | 0.00 | 0.00 | 79 | 1017.4 |
| 20260509220907 | 26 | 87 | 16.1 | 27.4 | 0.00 | 0.00 | 0.00 | 78 | 1017.4 |
| 20260509220406 | 26 | 39 | 12.9 | 27.4 | 0.00 | 0.00 | 0.00 | 77 | 1017.2 |
| 20260509215905 | 26 | 37 | 12.9 | 25.7 | 0.00 | 0.00 | 0.00 | 79 | 1017.5 |
| 20260509215405 | 26 | 97 | 14.5 | 25.7 | 0.00 | 0.00 | 0.00 | 79 | 1017.6 |
| 20260509215134 | 26 | 63 | 0.0 | 27.4 | 0.00 | 0.00 | 0.00 | 79 | 1017.5 |
| 20260509214406 | 26 | 51 | 11.3 | 27.4 | 0.00 | 0.00 | 0.00 | 78 | 1017.6 |
| 20260509213904 | 26 | 29 | 14.5 | 27.4 | 0.00 | 0.00 | 0.00 | 79 | 1017.9 |
| 20260509213403 | 25 | 68 | 1.6 | 27.4 | 0.00 | 0.00 | 0.00 | 80 | 1017.9 |
| 20260509213134 | 26 | 50 | 0.0 | 24.1 | 0.00 | 0.00 | 0.00 | 78 | 1017.9 |
| 20260509212403 | 26 | 53 | 8.0 | 24.1 | 0.00 | 0.00 | 0.00 | 78 | 1018.2 |
| 20260509212133 | 26 | 52 | 6.4 | 24.1 | 0.00 | 0.00 | 0.00 | 76 | 1018.1 |
| 20260509211401 | 26 | 62 | 14.5 | 24.1 | 0.00 | 0.00 | 0.00 | 79 | 1018.2 |
| 20260509210902 | 26 | 89 | 12.9 | 24.1 | 0.00 | 0.00 | 0.00 | 78 | 1018.3 |
| 20260509210400 | 26 | 46 | 6.4 | 24.1 | 0.00 | 0.00 | 0.00 | 79 | 1018.3 |
| 20260509205848 | 25 | 82 | 8.0 | 24.1 | 0.00 | 0.00 | 0.00 | 80 | 1018.5 |
| 20260509205348 | 25 | 42 | 16.1 | 24.1 | 0.00 | 0.00 | 0.00 | 80 | 1018.6 |
| 20260509204847 | 25 | 55 | 1.6 | 25.7 | 0.00 | 0.00 | 0.00 | 81 | 1018.1 |
| 20260509204348 | 25 | 77 | 17.7 | 25.7 | 0.00 | 0.00 | 0.00 | 80 | 1018.2 |
| 20260509204119 | 25 | 63 | 12.9 | 24.1 | 0.00 | 0.00 | 0.00 | 80 | 1018.3 |
| 20260509203618 | 25 | 61 | 3.2 | 22.5 | 0.00 | 0.00 | 0.00 | 80 | 1018.2 |
| 20260509202848 | 25 | 53 | 6.4 | 22.5 | 0.00 | 0.00 | 0.00 | 79 | 1018.3 |
| 20260509202347 | 25 | 54 | 14.5 | 22.5 | 0.00 | 0.00 | 0.00 | 78 | 1018.4 |
| 20260509201847 | 25 | 18 | 0.0 | 20.9 | 0.00 | 0.00 | 0.00 | 79 | 1018.3 |
| 20260509201347 | 25 | 51 | 9.7 | 20.9 | 0.00 | 0.00 | 0.00 | 79 | 1018.4 |
| 20260509200847 | 25 | 81 | 8.0 | 17.7 | 0.00 | 0.00 | 0.00 | 80 | 1018.7 |
| 20260509200618 | 25 | 58 | 1.6 | 22.5 | 0.00 | 0.00 | 0.00 | 80 | 1018.8 |
| 20260509195835 | 25 | 30 | 8.0 | 22.5 | 0.00 | 0.00 | 0.00 | 80 | 1018.6 |
| 20260509195334 | 25 | 77 | 12.9 | 20.9 | 0.00 | 0.00 | 0.00 | 80 | 1018.5 |
| 20260509194834 | 25 | 58 | 0.0 | 17.7 | 0.00 | 0.00 | 0.00 | 79 | 1018.6 |
| 20260509194334 | 25 | 51 | 11.3 | 20.9 | 0.00 | 0.00 | 0.00 | 80 | 1018.7 |
| 20260509193833 | 25 | 62 | 4.8 | 20.9 | 0.00 | 0.00 | 0.00 | 80 | 1018.8 |
| 20260509193334 | 24 | 24 | 9.7 | 20.9 | 0.00 | 0.00 | 0.00 | 82 | 1018.8 |
| 20260509192834 | 24 | 36 | 11.3 | 25.7 | 0.00 | 0.00 | 0.00 | 81 | 1018.6 |
| 20260509192321 | 24 | 65 | 0.0 | 25.7 | 0.00 | 0.00 | 0.00 | 82 | 1018.7 |
| 20260509191821 | 24 | 45 | 12.9 | 25.7 | 0.00 | 0.00 | 0.00 | 81 | 1018.7 |
| 20260509191322 | 24 | 41 | 14.5 | 25.7 | 0.00 | 0.00 | 0.00 | 83 | 1019.0 |
| 20260509190821 | 24 | 26 | 11.3 | 25.7 | 0.00 | 0.00 | 0.00 | 83 | 1018.8 |
| 20260509190320 | 24 | 67 | 11.3 | 20.9 | 0.00 | 0.00 | 0.00 | 82 | 1018.7 |
| 20260509185820 | 24 | 41 | 11.3 | 20.9 | 0.00 | 0.00 | 0.00 | 82 | 1018.6 |
| 20260509185320 | 24 | 62 | 9.7 | 22.5 | 0.00 | 0.00 | 0.00 | 82 | 1018.6 |
| 20260509184820 | 23 | 94 | 8.0 | 22.5 | 0.00 | 0.00 | 0.00 | 84 | 1018.8 |
| 20260509184320 | 23 | 54 | 9.7 | 22.5 | 0.00 | 0.00 | 0.00 | 83 | 1018.7 |
| 20260509184057 | 23 | 44 | 16.1 | 25.7 | 0.00 | 0.00 | 0.00 | 82 | 1018.8 |
| 20260509183819 | 23 | 56 | 12.9 | 22.5 | 0.00 | 0.00 | 0.00 | 83 | 1019.0 |
| 20260509182808 | 24 | 45 | 12.9 | 25.7 | 0.00 | 0.00 | 0.00 | 82 | 1018.9 |
| 20260509182538 | 24 | 72 | 3.2 | 27.4 | 0.00 | 0.00 | 0.00 | 81 | 1018.8 |
| 20260509181808 | 24 | 69 | 8.0 | 27.4 | 0.00 | 0.00 | 0.00 | 81 | 1018.8 |
| 20260509181308 | 24 | 36 | 17.7 | 22.5 | 0.00 | 0.00 | 0.00 | 81 | 1018.4 |
| 20260509181041 | 23 | 73 | 11.3 | 20.9 | 0.00 | 0.00 | 0.00 | 82 | 1018.5 |
| 20260509180308 | 24 | 40 | 1.6 | 20.9 | 0.00 | 0.00 | 0.00 | 82 | 1018.7 |
| 20260509180039 | 24 | 65 | 12.9 | 22.5 | 0.00 | 0.00 | 0.00 | 82 | 1018.8 |
| 20260509175308 | 24 | 44 | 9.7 | 25.7 | 0.00 | 0.00 | 0.00 | 82 | 1018.5 |
| 20260509174808 | 24 | 37 | 4.8 | 25.7 | 0.00 | 0.00 | 0.00 | 82 | 1018.4 |
| 20260509174307 | 24 | 84 | 12.9 | 20.9 | 0.00 | 0.00 | 0.00 | 82 | 1018.4 |
| 20260509173807 | 24 | 65 | 4.8 | 24.1 | 0.00 | 0.00 | 0.00 | 82 | 1018.4 |
| 20260509173255 | 24 | 40 | 9.7 | 24.1 | 0.00 | 0.00 | 0.00 | 82 | 1018.3 |
| 20260509172756 | 24 | 350 | 9.7 | 20.9 | 0.00 | 0.03 | 0.00 | 84 | 1018.3 |
| 20260509172256 | 23 | 57 | 16.1 | 20.9 | 0.00 | 0.05 | 0.00 | 84 | 1018.4 |
| 20260509171743 | 23 | 60 | 12.9 | 20.9 | 0.00 | 0.05 | 0.00 | 84 | 1018.4 |
| 20260509171503 | 23 | 32 | 0.0 | 16.1 | 0.00 | 0.05 | 0.00 | 85 | 1018.3 |
| 20260509170732 | 23 | 46 | 9.7 | 20.9 | 0.00 | 0.05 | 0.00 | 85 | 1018.4 |
| 20260509170232 | 23 | 58 | 8.0 | 20.9 | 0.00 | 0.05 | 0.00 | 86 | 1018.4 |
| 20260509165733 | 23 | 66 | 12.9 | 20.9 | 0.00 | 0.05 | 0.00 | 85 | 1018.4 |
| 20260509165232 | 23 | 57 | 14.5 | 20.9 | 0.00 | 0.08 | 0.00 | 85 | 1018.2 |
| 20260509164733 | 23 | 55 | 6.4 | 20.9 | 0.00 | 0.08 | 0.00 | 85 | 1018.3 |
| 20260509164231 | 23 | 53 | 6.4 | 20.9 | 0.00 | 0.08 | 0.00 | 85 | 1018.2 |
| 20260509163731 | 23 | 64 | 0.0 | 14.5 | 0.00 | 0.08 | 0.00 | 85 | 1018.0 |
| 20260509163233 | 23 | 44 | 3.2 | 17.7 | 0.00 | 0.10 | 0.00 | 85 | 1018.3 |
| 20260509162733 | 23 | 79 | 9.7 | 17.7 | 0.00 | 0.10 | 0.00 | 85 | 1018.1 |
| 20260509162231 | 22 | 72 | 8.0 | 16.1 | 0.00 | 0.10 | 0.00 | 85 | 1018.2 |
| 20260509161732 | 22 | 48 | 8.0 | 17.7 | 0.00 | 0.13 | 0.00 | 86 | 1018.1 |
| 20260509161232 | 22 | 65 | 4.8 | 20.9 | 0.00 | 0.13 | 0.00 | 85 | 1018.0 |
| 20260509160951 | 22 | 68 | 11.3 | 22.5 | 0.00 | 0.18 | 0.00 | 85 | 1017.8 |
| 20260509160220 | 22 | 69 | 9.7 | 22.5 | 0.00 | 0.23 | 0.00 | 86 | 1017.8 |
| 20260509155719 | 22 | 112 | 9.7 | 20.9 | 0.00 | 0.38 | 0.00 | 86 | 1017.8 |
| 20260509155220 | 22 | 78 | 0.0 | 22.5 | 0.00 | 0.41 | 0.00 | 85 | 1017.7 |
| 20260509154719 | 22 | 42 | 12.9 | 22.5 | 0.00 | 0.48 | 0.00 | 84 | 1017.7 |
| 20260509154222 | 23 | 52 | 8.0 | 24.1 | 0.00 | 0.64 | 0.00 | 85 | 1017.4 |
| 20260509153720 | 22 | 98 | 3.2 | 24.1 | 0.00 | 0.71 | 0.00 | 85 | 1017.5 |
| 20260509153450 | 22 | 91 | 9.7 | 20.9 | 0.00 | 0.89 | 0.00 | 85 | 1017.6 |
| 20260509152722 | 22 | 34 | 4.8 | 17.7 | 0.00 | 1.09 | 0.00 | 85 | 1017.3 |
| 20260509152220 | 22 | 55 | 0.0 | 17.7 | 0.00 | 1.27 | 0.00 | 86 | 1017.5 |
| 20260509151720 | 22 | 61 | 1.6 | 20.9 | 0.00 | 1.27 | 0.00 | 87 | 1017.5 |
| 20260509151220 | 22 | 42 | 3.2 | 17.7 | 0.00 | 1.27 | 0.00 | 86 | 1017.4 |
| 20260509150720 | 23 | 58 | 4.8 | 20.9 | 0.00 | 1.27 | 0.00 | 87 | 1017.0 |
| 20260509150219 | 23 | 31 | 12.9 | 20.9 | 0.00 | 1.27 | 0.00 | 87 | 1017.5 |
| 20260509145721 | 22 | 71 | 9.7 | 14.5 | 0.00 | 1.27 | 0.00 | 87 | 1017.1 |
| 20260509145219 | 22 | 69 | 0.0 | 0.0 | 0.00 | 1.27 | 0.00 | 86 | 1017.3 |
| 20260509144720 | 22 | 73 | 0.0 | 12.9 | 0.00 | 1.27 | 0.00 | 86 | 1017.3 |
| 20260509144220 | 23 | 81 | 0.0 | 12.9 | 0.00 | 1.27 | 0.00 | 85 | 1017.4 |
| 20260509143719 | 23 | 52 | 0.0 | 8.0 | 0.00 | 1.27 | 0.00 | 84 | 1017.3 |
| 20260509143451 | 23 | 62 | 0.0 | 12.9 | 0.00 | 1.27 | 0.00 | 84 | 1017.2 |
| 20260509142720 | 23 | 54 | 6.4 | 14.5 | 0.00 | 1.27 | 0.00 | 83 | 1017.3 |
| 20260509142220 | 23 | 81 | 0.0 | 14.5 | 0.00 | 1.27 | 0.00 | 83 | 1017.4 |
| 20260509141720 | 23 | 86 | 0.0 | 14.5 | 0.00 | 1.27 | 0.00 | 85 | 1017.2 |
| 20260509141452 | 23 | 88 | 4.8 | 14.5 | 0.00 | 1.27 | 0.00 | 84 | 1017.0 |
| 20260509140720 | 23 | 91 | 12.9 | 12.9 | 0.00 | 1.27 | 0.00 | 85 | 1017.2 |
| 20260509140222 | 22 | 63 | 0.0 | 0.0 | 0.00 | 1.27 | 0.00 | 85 | 1016.9 |
| 20260509135719 | 22 | 113 | 0.0 | 0.0 | 0.00 | 1.27 | 0.00 | 84 | 1017.0 |
| 20260509135222 | 22 | 113 | 0.0 | 0.0 | 0.00 | 1.27 | 0.00 | 84 | 1017.1 |
| 20260509134719 | 22 | 86 | 0.0 | 0.0 | 0.00 | 1.27 | 0.00 | 84 | 1017.0 |
| 20260509134208 | 22 | 84 | 0.0 | 0.0 | 0.00 | 1.27 | 0.00 | 84 | 1016.9 |
| 20260509133708 | 22 | 71 | 0.0 | 14.5 | 0.00 | 1.27 | 0.00 | 84 | 1016.9 |
| 20260509133208 | 22 | 64 | 9.7 | 14.5 | 0.00 | 1.27 | 0.00 | 84 | 1017.2 |
| 20260509132708 | 22 | 90 | 0.0 | 0.0 | 0.00 | 1.27 | 0.00 | 85 | 1017.2 |
| 20260509132207 | 22 | 115 | 0.0 | 9.7 | 0.00 | 1.27 | 0.00 | 85 | 1016.8 |
| 20260509131707 | 22 | 115 | 0.0 | 14.5 | 0.00 | 1.27 | 0.00 | 85 | 1017.1 |
| 20260509131208 | 23 | 97 | 0.0 | 14.5 | 0.00 | 1.27 | 0.00 | 85 | 1017.1 |
| 20260509130655 | 23 | 110 | 6.4 | 14.5 | 0.00 | 1.27 | 0.00 | 85 | 1017.3 |
| 20260509130415 | 23 | 86 | 0.0 | 14.5 | 0.00 | 1.27 | 0.00 | 85 | 1017.3 |
| 20260509125646 | 23 | 78 | 0.0 | 12.9 | 0.00 | 1.27 | 0.00 | 84 | 1017.2 |
| 20260509125416 | 23 | 56 | 0.0 | 12.9 | 0.00 | 1.27 | 0.00 | 84 | 1017.4 |